Weather observations for the past three days for
Massena, Massena International-Richards Field
Imperial (Metric)
Date Time (edt) Wind (mph) Vis. (mi.) Weather Sky Cond. Temperature (ºF) Relative Humidity Wind Chill (°F) Heat Index (°F) Pressure Precipitation (in)
Air Dwpt 6 hour altimeter (in) sea level (mb) 1 hr 3 hr 6 hr
Max. Min.
13 16:53 SW 14 G 23 10.00 A Few Clouds FEW100 79 59 50% 80 29.78 1008.5
13 15:53 SW 15 G 28 10.00 Mostly Cloudy BKN100 80.1 59 49% 81 29.81 1009.3
13 14:53 SW 17 G 24 10.00 Mostly Cloudy BKN110 81 59 47% 81 29.8 1009.2
13 13:53 SW 18 G 26 10.00 Fair CLR 81 59 82 63 47% 81 29.81 1009.5
13 12:53 SW 16 G 26 10.00 Fair CLR 81 57.9 45% 81 29.82 1009.8
13 11:53 SW 14 G 26 10.00 Fair CLR 80.1 57.9 47% 81 29.84 1010.3
13 10:53 S 12 G 22 10.00 Fair CLR 78.1 55 45% 79 29.85 1010.7
13 09:53 S 12 G 22 10.00 Fair CLR 75 55 50% 78 29.87 1011.3
13 08:53 S 9 10.00 Fair CLR 69.1 55 61% 29.9 1012.6
13 07:53 S 5 10.00 Fair CLR 62.1 54 62.1 46 75% 29.91 1013.0
13 06:53 Calm 10.00 Fair CLR 57 52 83% 29.92 1013.4
13 05:53 Calm 10.00 Fair CLR 48 46 93% 29.94 1013.8
13 04:53 Calm 10.00 Fair CLR 46.9 46 97% 29.93 1013.6
13 03:53 Calm 9.00 Fair CLR 48.9 46.9 93% 29.92 1013.4
13 02:53 Calm 10.00 Fair CLR 52 50 93% 29.93 1013.6
13 01:53 Calm 10.00 Fair CLR 50 48 64.9 50 93% 29.95 1014.3
13 00:53 Calm 10.00 Fair CLR 53.1 50 89% 29.95 1014.3
12 23:53 Calm 10.00 Fair CLR 55 52 90% 29.97 1014.8
12 22:53 Calm 10.00 Fair CLR 55.9 52 87% 29.96 1014.7
12 21:53 SW 5 10.00 Fair CLR 57.9 53.1 84% 29.97 1015.0
12 20:53 Calm 10.00 Fair CLR 59 53.1 81% 29.96 1014.8
12 19:53 S 5 10.00 Partly Cloudy SCT055 64.9 54 68 63 68% 29.97 1014.9
12 18:53 S 7 10.00 Fair CLR 66.9 53.1 61% 29.98 1015.3
12 17:53 SW 9 10.00 Mostly Cloudy BKN050 66.9 53.1 61% 29.98 1015.3
12 16:53 S 8 10.00 Overcast OVC048 66 53.1 63% 29.99 1015.6
12 15:53 SW 9 10.00 Overcast SCT035 OVC047 66 53.1 63% 30.01 1016.2
12 14:53 Vrbl 6 10.00 Overcast OVC044 64.9 53.1 66% 30.02 1016.7
12 13:53 SW 9 10.00 Overcast OVC036 63 51.1 64 57.9 65% 30.04 1017.4
12 12:53 SW 7 10.00 Overcast OVC039 64 52 65% 30.05 1017.7
12 11:53 SW 5 10.00 Overcast OVC040 62.1 51.1 67% 30.06 1017.9
12 10:53 W 8 10.00 Overcast OVC036 61 52 72% 30.06 1018.1
12 09:53 SW 5 10.00 Overcast OVC034 60.1 52 75% 30.07 1018.2
12 07:53 S 5 10.00 Overcast OVC031 57.9 52 57.9 55.9 81% 30.05 1017.5
12 06:53 SW 3 10.00 Overcast OVC031 57 52 83% 30.05 1017.6
12 05:53 S 3 10.00 Overcast OVC029 55.9 52 87% 30.04 1017.3
12 04:53 S 3 10.00 Overcast OVC028 55.9 51.1 84% 30.03 1017.1
12 03:53 S 5 10.00 Overcast OVC029 57 51.1 81% 30.03 1016.9
12 02:53 SW 3 10.00 Overcast OVC029 57 51.1 81% 30.04 1017.3
12 01:53 SW 5 10.00 Overcast OVC028 57 52 60.1 55.9 83% 30.04 1017.2
12 00:53 SW 5 10.00 Overcast OVC030 57 52 83% 30.04 1017.3
11 23:53 Calm 10.00 Overcast OVC033 57.9 52 81% 30.04 1017.3
11 22:53 Calm 10.00 Overcast OVC034 57 52 83% 30.03 1016.9
11 21:53 SW 5 10.00 Mostly Cloudy BKN035 57 52 83% 30.02 1016.7
11 20:53 SW 6 10.00 Overcast OVC035 59 52 78% 30.01 1016.4
11 19:53 SW 6 10.00 Overcast OVC031 60.1 52 63 60.1 75% 30.01 1016.3
11 18:53 S 6 10.00 Overcast OVC031 61 52 72% 29.99 1015.6
11 17:53 S 5 10.00 Overcast OVC032 61 51.1 70% 29.99 1015.7
11 16:53 SW 7 10.00 Overcast OVC031 62.1 51.1 67% 29.99 1015.6
11 15:53 Calm 10.00 Overcast OVC030 62.1 50 65% 29.99 1015.5
11 14:53 Calm 10.00 Overcast OVC030 62.1 50 65% 29.99 1015.6
11 13:53 Vrbl 6 10.00 Overcast BKN024 OVC036 61 50 61 52 67% 29.99 1015.6
11 12:53 Vrbl 3 10.00 Overcast BKN021 OVC035 59 48.9 69% 29.99 1015.8
11 11:53 W 7 10.00 Overcast OVC019 57 48.9 74% 29.99 1015.8
11 10:53 W 7 10.00 Overcast OVC018 55.9 48 75% 29.99 1015.8
11 09:53 W 8 10.00 Overcast OVC017 54 46.9 77% 29.99 1015.8
11 08:53 Vrbl 3 10.00 Overcast OVC022 53.1 46.9 80% 29.98 1015.3
11 07:53 SW 5 10.00 Overcast BKN015 OVC025 52 46 53.1 50 80% 29.96 1014.7
11 06:53 W 3 10.00 Overcast FEW018 OVC026 52 46 80% 29.95 1014.4
11 05:53 W 5 10.00 Overcast BKN016 OVC027 51.1 45 80% 29.93 1013.7
11 04:53 W 7 10.00 Overcast OVC014 51.1 45 80% 29.91 1013.0
11 03:53 W 7 10.00 Overcast OVC018 51.1 45 80% 29.89 1012.4
11 02:53 W 6 10.00 Overcast OVC017 52 46 80% 29.88 1012.1
11 01:53 NW 5 10.00 Overcast SCT019 SCT024 OVC032 52 46 55 51.1 80% 29.87 1011.7
11 00:53 NW 10 10.00 Overcast OVC018 52 46 80% 29.86 1011.4
10 23:53 NW 8 10.00 Overcast OVC019 53.1 45 74% 29.85 1011.0
10 22:53 NW 7 10.00 Overcast OVC023 53.1 46 77% 29.84 1010.5
10 21:53 NW 12 10.00 Overcast OVC020 54 46 75% 29.82 1009.9
10 20:53 NW 7 10.00 Overcast OVC024 55 46.9 74% 29.8 1009.2
10 19:53 W 8 10.00 Overcast OVC022 55 48 57.9 55 77% 29.77 1008.3
10 18:53 W 7 10.00 Overcast OVC023 55.9 48 75% 29.75 1007.6
10 17:53 W 10 10.00 Overcast OVC025 57 48.9 74% 29.73 1006.8
Date Time (edt) Wind (mph) Vis. (mi.) Weather Sky Cond. Air Dwpt Max. Min. Relative Humidity Wind Chill (°F) Heat Index (°F) altimeter (in) sea level (mb) 1 hr 3 hr 6 hr
6 hour
Temperature (ºF) Pressure Precipitation (in)